Theta_e
324 324 324 325 326 326 325 324 324 323 322 321 322 323 324 324 323 322 323 324 325 325 324 325 326 326 326 326 327 328 328 327 327 327 328 328 328 328 329 329 329 329 329 328 328 328 328 328 327 327 327 328 329 328 328 328 328 328 328 328 327 327 327
324 324 325 326 326 325 324 324 323 322 321 319 319 321 322 323 322 321 323 324 324 324 323 323 323 324 325 325 326 327 327 326 327 327 327 328 328 327 328 328 328 328 328 328 327 327 326 327 328 327 326 327 328 328 327 326 327 328 327 327 327 327 326
324 325 325 325 325 325 324 323 322 320 320 319 319 320 321 321 321 321 322 323 322 320 321 321 321 322 324 324 324 325 325 325 326 325 325 325 325 326 327 327 327 327 327 328 327 326 325 325 327 326 325 326 326 327 326 326 326 326 325 324 324 324 325
325 325 324 324 325 325 324 322 321 319 320 320 320 319 320 320 320 321 321 321 320 320 321 321 321 322 323 323 323 324 324 323 323 322 321 319 319 322 324 324 325 326 326 327 327 327 325 324 326 326 325 325 326 326 326 324 324 323 322 321 320 322 323
324 324 324 324 324 324 323 322 320 319 319 320 320 319 319 319 320 320 321 320 320 320 320 320 321 322 321 321 321 322 323 322 320 319 317 316 316 317 318 318 320 322 325 327 327 327 325 324 325 324 324 324 324 325 325 324 324 322 320 319 319 320 321
324 324 324 324 323 322 322 322 320 319 318 318 318 318 318 318 319 320 320 319 319 319 319 319 320 320 320 320 320 320 320 320 318 316 315 315 315 315 316 316 316 319 324 327 327 326 325 325 324 323 324 323 322 323 324 325 324 322 319 318 318 319 319
324 324 324 324 323 322 322 321 320 318 318 317 318 317 317 316 317 318 319 319 318 318 318 319 319 318 318 317 317 317 318 317 316 315 315 315 315 315 315 315 316 318 321 325 326 325 325 324 323 324 324 322 320 321 321 322 321 320 318 318 318 318 317
324 323 324 324 323 323 322 320 319 318 318 318 319 318 316 315 316 316 317 318 317 316 316 317 316 315 315 316 316 316 316 316 316 316 316 315 315 315 315 315 316 316 317 320 322 324 324 323 323 323 322 322 321 318 317 318 318 318 318 318 317 316 315
324 324 324 323 323 323 321 320 319 318 318 319 319 317 316 315 315 315 315 316 316 315 315 315 315 315 315 315 316 316 315 316 316 316 316 315 314 313 313 314 315 316 316 316 317 320 322 321 322 322 320 321 319 316 316 316 315 317 317 317 316 314 312
324 324 323 324 323 322 321 320 319 318 318 319 318 317 316 316 315 316 316 316 316 316 315 315 314 314 314 314 315 315 315 316 316 316 315 315 314 313 313 312 313 315 315 315 315 316 316 316 317 319 319 318 315 316 318 317 314 314 316 315 315 314 312
324 324 324 323 322 321 321 320 319 319 319 318 318 316 317 318 317 316 316 316 316 316 316 316 315 315 315 316 316 316 316 315 315 315 316 316 316 316 315 314 313 314 314 314 314 315 314 314 315 316 317 317 314 314 317 318 315 313 314 314 313 313 313
323 324 324 322 321 320 321 320 319 319 319 318 318 317 318 319 318 316 317 317 317 317 317 316 316 317 317 317 316 316 316 315 315 316 315 315 315 317 316 315 314 313 313 313 314 314 314 314 314 315 316 316 315 313 312 314 315 312 312 313 312 310 311
324 324 323 321 320 321 321 320 319 319 319 319 318 318 319 319 318 319 319 319 317 317 317 317 317 317 317 317 316 317 316 316 316 317 316 314 314 315 315 315 314 313 313 313 313 314 314 314 314 314 316 316 314 313 312 311 312 311 310 311 311 310 310
325 324 323 321 321 322 321 320 319 319 319 319 319 319 319 319 320 320 320 319 319 319 319 319 319 319 318 317 318 318 317 316 316 317 316 315 314 314 313 313 314 314 314 313 313 314 314 314 314 314 315 316 314 313 313 312 310 309 309 309 309 310 309
326 324 323 321 321 323 322 320 320 319 319 320 320 320 320 320 320 321 321 320 320 321 321 320 321 321 319 319 320 320 319 317 317 317 316 316 316 315 314 313 313 314 315 314 314 315 314 313 313 313 314 315 314 313 313 312 310 309 309 309 309 309 309
326 325 325 322 322 323 322 321 320 319 320 321 321 321 320 320 321 321 321 321 321 322 321 321 322 322 321 321 321 322 321 319 319 320 318 317 317 317 317 317 316 316 316 316 316 316 315 314 314 313 314 314 315 315 314 312 311 310 310 310 309 309 310
324 324 323 321 322 323 322 322 321 319 320 320 320 320 320 321 321 321 321 322 322 322 322 322 323 323 322 323 323 323 322 322 322 322 321 319 319 319 319 319 319 319 318 318 318 317 315 315 315 315 315 316 317 317 316 315 314 312 310 310 311 312 312
325 322 319 317 319 321 321 321 321 319 319 320 320 320 321 321 322 322 322 322 322 322 323 323 324 324 324 324 324 323 323 323 322 322 322 321 321 321 321 321 320 320 320 320 320 319 317 316 316 315 316 316 316 317 317 317 316 314 313 312 312 313 313
325 321 319 319 319 319 318 320 320 319 319 320 320 321 321 321 321 322 321 321 321 321 321 323 324 324 324 324 324 323 322 322 322 322 322 322 321 321 321 322 322 321 321 321 320 320 319 318 316 315 315 315 316 316 317 317 318 317 316 315 314 314 314
325 322 321 322 322 320 318 318 319 319 320 320 320 320 321 320 321 322 321 320 320 319 321 322 323 323 323 324 324 323 322 321 322 322 322 321 320 320 321 321 321 321 321 321 321 320 320 319 318 317 316 316 316 316 315 316 317 317 317 316 316 315 316
325 323 322 323 323 323 321 318 318 319 321 321 321 321 321 321 321 321 321 320 319 319 320 320 321 322 323 322 322 323 322 320 321 321 321 321 320 320 320 321 321 321 321 321 321 321 321 320 319 318 318 317 317 316 316 316 316 316 316 316 315 315 315
324 322 322 323 324 325 324 321 320 320 321 321 321 321 321 321 321 321 320 320 320 320 320 319 319 321 321 321 321 321 321 320 319 319 320 321 321 320 320 320 320 321 321 321 320 320 321 320 320 319 319 317 317 317 317 317 316 316 315 315 315 315 315
324 322 322 323 323 324 324 323 322 321 321 321 321 321 321 321 321 321 321 321 320 320 319 319 319 320 321 321 321 321 321 320 319 319 320 321 321 320 320 320 321 322 322 321 321 320 321 320 320 320 319 318 317 318 318 318 317 316 315 314 314 314 315
323 323 323 324 323 323 324 323 322 321 321 321 321 321 321 321 321 321 321 321 321 320 319 319 319 320 321 322 322 321 320 319 318 319 320 319 320 321 321 321 321 320 320 320 320 320 320 319 318 318 318 317 317 318 318 318 317 316 315 314 314 313 313
323 323 324 324 323 323 323 323 322 322 321 321 321 321 321 321 321 321 320 320 320 320 319 318 318 320 321 321 321 320 319 319 318 318 318 318 319 321 322 322 321 319 319 319 318 317 317 315 314 313 313 314 316 317 317 317 316 316 315 314 312 312 312
323 323 324 324 322 322 323 323 322 322 322 322 321 320 321 321 321 321 320 320 319 319 318 319 319 320 320 320 320 319 319 319 317 317 318 319 320 321 321 321 321 321 320 318 317 317 317 314 313 312 310 311 314 315 316 316 316 315 315 314 312 311 311
322 322 323 322 322 322 322 322 322 322 322 322 322 321 321 321 320 320 319 319 318 318 318 320 320 320 319 319 319 318 318 317 317 317 319 319 320 321 321 321 322 320 317 316 317 318 317 315 314 313 311 311 311 311 312 312 313 313 314 314 313 311 311
321 322 322 322 322 322 322 321 322 322 321 322 322 321 321 320 319 318 319 319 318 319 320 320 319 318 318 318 317 316 316 317 317 317 317 318 319 318 319 321 321 318 316 316 316 316 316 316 316 314 312 312 311 310 310 308 308 310 310 311 311 310 310
321 321 322 323 323 322 322 322 321 321 321 321 320 320 320 320 319 319 320 319 319 319 319 318 316 316 317 316 313 312 314 315 316 316 316 316 316 316 317 319 319 318 317 316 314 313 313 314 314 314 313 313 312 311 310 309 307 308 308 309 308 308 307
320 321 322 323 322 321 322 322 321 321 320 320 320 320 320 319 319 320 320 318 317 317 316 314 313 312 312 310 309 311 314 315 315 315 315 315 316 315 316 317 317 316 315 314 312 312 311 311 312 311 312 312 312 311 309 308 307 306 306 306 306 305 305
316 317 320 321 321 321 321 321 321 321 320 320 320 320 320 319 318 319 318 316 314 314 312 310 308 306 305 305 307 312 314 315 315 315 314 315 314 312 313 315 315 314 312 310 309 308 307 307 307 308 310 312 311 310 308 308 307 306 305 304 304 304 304
310 312 314 316 317 319 319 319 319 319 319 318 318 318 319 319 317 317 317 315 313 313 310 306 304 302 302 305 309 312 313 314 314 314 313 313 311 308 310 312 312 312 311 307 304 303 302 304 305 307 309 311 310 309 308 307 306 306 306 305 304 303 302
308 308 310 310 312 314 315 316 316 318 318 317 316 317 318 318 318 317 316 315 314 312 308 304 302 301 303 307 310 311 311 313 314 313 312 312 310 307 307 308 309 309 307 303 301 301 301 303 306 307 308 309 309 309 308 307 306 306 305 304 303 302 301
306 307 308 308 309 311 312 312 313 315 315 315 315 316 316 317 317 317 316 315 314 311 306 303 302 301 302 304 306 307 309 312 312 313 312 311 310 307 305 307 308 306 303 301 301 301 301 302 305 305 305 305 306 305 306 306 305 304 303 303 302 301 300
304 306 306 307 308 309 309 311 311 312 311 312 313 313 313 314 315 316 316 315 313 312 308 304 303 302 301 302 302 304 308 310 310 312 312 311 310 308 306 306 306 303 302 302 302 301 301 302 303 304 304 303 303 302 301 300 300 300 300 300 300 299 299
303 303 304 305 306 306 307 308 310 311 311 311 311 311 311 311 312 314 314 313 312 313 311 309 307 305 303 302 301 302 306 308 308 309 311 311 310 309 307 306 304 303 303 303 302 302 303 303 304 305 304 303 303 301 298 297 297 298 299 299 299 299 299
302 302 302 303 303 303 304 306 307 309 310 311 312 312 311 310 310 312 312 311 311 312 312 311 310 309 306 304 301 300 304 306 305 306 309 310 310 310 308 305 304 304 304 304 304 304 304 305 305 305 304 303 302 299 297 297 298 299 299 298 298 298 298
Wind_Speed
25 24 24 23 20 19 18 16 14 14 14 14 14 14 12 10 9 9 9 12 13 13 11 12 12 11 11 10 10 12 12 11 11 12 11 9 8 9 9 7 7 10 13 13 13 11 5 2 4 6 7 8 10 11 11 10 10 10 10 10 11 11 10
25 26 25 24 20 19 18 16 14 14 14 14 12 13 13 10 10 14 14 15 15 13 11 11 11 11 12 11 12 13 14 14 13 13 12 10 10 11 10 8 7 10 12 13 14 13 8 5 3 2 5 8 9 11 11 10 12 13 14 13 13 12 10
27 26 25 23 20 19 19 19 18 18 17 16 14 14 13 12 12 16 17 17 15 13 13 14 13 13 13 12 12 12 12 12 11 11 11 11 10 9 9 10 10 11 10 8 10 14 11 7 5 5 7 8 8 9 10 12 16 17 16 14 13 11 10
28 27 25 23 21 21 21 21 20 19 18 18 18 17 15 13 13 14 16 17 15 14 15 14 14 14 14 12 12 12 12 12 12 12 13 15 14 11 10 10 10 9 9 9 12 15 12 8 7 5 8 11 11 11 12 14 17 18 16 14 13 12 12
28 28 26 24 23 22 22 21 20 19 18 17 18 18 16 15 15 15 15 17 16 15 15 14 13 14 14 13 12 12 12 13 15 16 17 18 18 18 16 14 13 10 11 14 15 17 18 18 14 8 9 12 10 12 16 16 15 15 16 14 13 13 13
29 28 26 24 22 21 21 22 20 19 19 18 17 17 16 16 16 16 16 17 16 15 15 16 15 15 14 14 13 12 12 13 15 17 18 17 16 17 17 17 17 14 13 14 14 17 22 22 17 11 10 11 10 12 17 15 13 13 13 13 12 12 13
28 27 26 23 21 22 23 22 20 20 20 19 19 18 17 16 16 16 17 16 16 16 16 17 16 15 15 15 15 14 14 15 17 18 18 17 15 15 15 16 18 18 16 15 15 18 21 20 18 13 10 10 12 14 14 14 16 15 13 12 11 10 10
25 25 24 23 21 22 22 20 20 20 20 19 19 18 17 17 17 17 17 17 17 17 17 17 17 16 17 17 16 16 16 16 18 18 17 17 15 14 15 15 17 19 19 17 15 16 18 19 16 14 11 9 8 9 10 12 15 16 16 13 8 7 8
22 23 23 22 20 20 20 20 20 21 20 20 19 18 17 17 18 19 19 18 17 16 16 16 17 17 17 17 16 16 17 16 17 18 18 17 15 14 14 14 15 17 17 16 15 13 14 14 11 10 13 12 7 5 5 7 8 11 16 14 8 5 8
22 22 22 22 20 19 19 20 21 21 20 20 19 18 19 19 19 19 19 18 18 17 17 17 17 17 17 17 17 17 16 16 17 18 18 17 17 16 16 14 14 14 14 14 15 14 13 12 11 8 10 16 16 9 4 3 4 6 11 12 9 7 6
21 21 21 20 20 20 20 21 21 21 20 19 19 20 20 19 18 18 18 18 18 18 18 17 17 17 17 17 17 16 16 17 18 18 17 16 16 15 15 15 15 14 13 14 15 14 13 13 13 13 10 15 21 16 10 6 3 5 11 11 9 10 8
20 20 20 20 21 20 21 21 21 21 20 19 19 20 19 18 17 18 18 17 17 18 17 16 17 17 17 17 16 15 15 16 17 17 15 14 14 14 15 15 14 14 13 14 15 14 13 13 12 14 15 14 20 20 19 14 5 5 12 12 9 10 10
20 21 20 21 21 20 20 21 21 20 20 19 19 19 18 16 16 16 16 16 17 18 16 15 16 16 16 15 15 15 14 12 12 12 13 13 12 13 15 15 13 12 11 11 12 11 10 11 12 15 16 15 19 20 21 19 10 7 11 13 12 11 11
19 22 22 22 20 18 19 20 19 19 18 18 18 18 17 15 15 14 14 14 16 17 15 14 13 13 14 13 11 12 11 11 12 11 11 11 11 11 12 12 11 10 9 10 11 10 9 11 14 17 17 16 18 17 16 18 15 11 10 11 12 12 12
17 19 20 20 18 16 17 18 18 18 18 17 17 16 16 15 14 13 13 13 13 13 13 13 11 11 12 11 9 8 9 11 12 10 9 9 9 9 9 9 9 9 9 11 11 10 10 13 15 16 17 17 17 15 13 15 16 12 10 10 12 12 11
15 16 16 17 16 16 17 17 17 17 17 17 16 15 15 14 13 13 12 12 11 10 11 11 9 9 10 10 8 9 11 11 9 8 8 9 9 8 8 9 8 8 9 10 10 10 11 13 13 14 16 17 15 12 10 11 13 12 11 11 11 10 9
14 14 12 13 13 13 16 16 15 16 16 16 16 15 14 14 13 12 11 11 10 10 11 10 9 10 10 10 9 8 10 10 8 7 8 10 10 9 9 9 8 7 8 7 8 9 9 12 13 14 14 13 12 12 11 9 9 12 13 11 10 11 8
13 13 10 12 13 12 14 15 14 15 16 15 15 13 13 13 12 11 11 12 12 13 13 13 12 12 11 10 10 9 8 8 7 5 5 7 9 9 9 8 7 7 7 6 7 7 7 9 10 12 12 11 10 11 11 9 7 9 11 9 9 11 6
14 16 15 16 17 17 17 16 15 16 15 14 14 11 11 12 11 11 11 12 13 12 13 14 13 11 11 10 10 9 7 7 6 5 4 5 6 6 6 7 7 6 6 6 6 5 4 5 7 8 9 8 8 9 10 9 8 8 10 8 8 8 4
16 20 20 18 17 16 18 18 16 16 14 13 13 12 13 14 14 13 12 11 11 10 11 13 13 11 11 10 10 9 7 7 7 7 7 7 7 7 7 8 6 5 5 5 5 4 3 4 6 7 8 7 6 7 9 10 10 8 7 6 5 4 3
17 19 18 15 13 12 15 18 17 16 15 15 15 14 15 16 15 15 13 12 10 9 10 13 13 11 10 9 9 8 7 7 8 8 8 9 8 8 8 9 7 5 5 4 4 4 4 5 5 6 6 6 4 4 5 6 7 7 5 4 2 0 1
17 17 14 13 13 9 9 14 16 16 16 17 16 15 15 14 14 14 13 11 10 9 10 11 13 13 11 9 9 8 6 6 7 9 9 9 9 8 8 9 7 5 5 4 4 5 6 6 5 4 4 3 2 2 2 1 2 3 3 2 2 2 2
16 19 18 16 16 14 12 14 16 16 15 16 17 16 15 13 12 12 11 10 9 9 9 9 10 11 11 9 8 6 5 6 7 8 9 9 9 9 8 7 7 6 5 5 5 6 6 6 5 4 3 2 2 2 1 1 1 0 1 2 3 4 4
11 16 18 16 17 19 17 12 12 14 13 13 15 15 14 13 11 10 9 9 9 10 9 8 8 10 10 9 7 5 5 5 5 6 8 8 9 9 8 7 7 6 5 5 5 6 5 4 3 3 3 3 4 5 4 3 2 2 2 2 3 4 5
11 12 14 15 16 18 16 10 8 11 11 11 13 13 12 11 10 9 9 10 11 11 10 9 9 10 10 8 7 5 6 6 6 7 8 9 9 9 9 9 8 7 7 7 7 7 6 5 3 2 1 3 5 5 6 6 5 5 3 2 2 3 4
13 11 10 12 15 16 17 16 13 11 11 11 12 13 12 11 11 11 11 12 12 11 10 9 9 10 10 9 8 7 7 8 8 8 10 11 10 9 10 11 11 10 9 8 7 7 7 6 5 4 2 2 2 2 2 4 5 5 5 4 2 1 1
8 9 9 12 15 17 18 18 16 13 12 13 13 13 13 12 12 11 12 12 12 11 10 9 9 10 11 11 11 10 9 8 8 7 8 9 9 9 10 12 13 12 10 9 9 9 7 6 6 5 4 4 4 4 3 2 1 3 4 5 5 4 2
7 8 10 11 13 13 13 14 13 12 13 14 13 13 13 12 12 12 13 13 13 11 10 10 11 12 13 14 13 11 10 10 10 10 10 11 11 11 12 14 15 12 11 10 10 9 7 6 4 2 2 3 4 4 4 5 5 3 1 1 1 1 3
16 15 14 13 11 11 12 11 11 11 12 13 12 11 13 13 13 15 15 13 12 12 13 14 14 14 15 14 13 12 12 12 14 14 14 13 13 13 14 16 16 13 11 10 9 7 6 6 5 3 2 2 2 2 2 4 5 4 3 3 2 1 1
20 20 19 18 16 14 14 14 13 12 12 13 12 11 12 13 14 15 15 13 14 16 17 17 15 15 15 14 14 14 13 14 16 14 12 12 11 12 13 14 14 12 10 9 7 6 5 5 3 2 2 4 4 2 2 3 3 3 2 1 1 1 3
8 9 12 15 15 15 15 15 15 14 13 13 13 13 13 13 14 14 14 13 15 16 16 15 14 14 14 15 17 15 12 14 18 17 13 12 11 10 11 11 9 9 8 7 4 3 3 4 4 1 2 6 7 4 4 4 3 2 2 1 2 4 7
18 14 9 3 5 9 11 11 12 13 13 13 13 13 14 14 14 14 13 12 13 14 14 14 14 14 15 16 17 13 8 12 19 18 15 14 13 12 12 11 8 7 6 4 2 1 1 2 3 1 3 7 10 6 4 4 4 2 1 3 5 8 9
20 19 16 14 9 3 3 7 10 12 12 12 13 14 15 17 17 18 16 14 13 14 15 15 15 15 15 16 15 11 8 13 20 20 17 16 16 14 14 13 10 8 6 3 2 2 2 3 3 4 5 8 10 7 4 3 2 2 3 5 7 7 6
19 18 18 16 14 10 7 2 5 9 9 10 11 13 16 19 20 21 21 19 16 15 16 16 15 15 15 15 14 11 9 12 19 22 20 18 18 17 16 15 13 10 8 6 4 3 3 3 3 3 4 5 6 5 4 4 5 6 6 5 4 4 5
16 17 17 17 16 14 12 9 6 3 5 7 7 7 10 15 19 23 26 25 21 18 17 16 15 15 16 15 13 11 9 10 16 23 23 21 21 19 18 17 16 13 10 7 5 3 3 3 3 2 1 1 1 1 1 2 4 5 4 2 2 3 5
14 15 16 16 17 16 15 14 12 9 8 9 10 9 5 6 12 20 27 27 25 22 20 19 17 15 15 15 14 12 10 8 12 19 23 24 23 21 20 19 17 15 11 8 6 5 5 4 4 3 1 2 3 3 3 1 0 1 1 1 2 4 4
14 15 16 16 17 17 17 17 15 14 13 11 13 15 13 8 8 15 22 25 25 23 21 19 18 16 15 15 15 15 13 9 8 12 18 22 22 22 21 20 18 15 12 11 9 7 6 5 5 3 2 2 3 2 0 2 3 2 1 1 3 3 2
Wind_Direction
149 149 148 147 149 149 141 134 131 129 127 126 126 133 140 139 118 106 129 140 129 126 125 111 104 104 103 99 98 97 94 101 113 116 120 121 112 109 115 119 112 121 141 151 147 138 123 83 75 80 99 114 120 124 124 125 133 131 121 114 112 114 121
144 145 147 147 148 148 144 138 137 133 126 122 124 133 139 140 116 98 114 132 120 110 116 110 104 107 107 101 99 99 93 93 96 97 104 109 108 106 104 108 112 111 121 136 140 132 123 125 127 114 130 127 122 123 121 117 117 117 115 111 109 111 112
141 143 145 146 149 151 147 141 138 133 131 131 130 132 134 137 125 103 104 116 109 100 105 106 103 103 103 100 99 101 96 94 96 94 93 92 94 104 108 112 116 115 117 127 133 130 122 118 130 160 165 150 132 128 128 119 114 113 113 108 101 101 103
144 145 147 149 152 151 145 141 138 135 134 133 130 127 127 132 130 113 105 108 106 107 109 107 106 102 97 96 98 102 99 94 95 95 88 83 85 96 104 107 112 119 125 132 141 141 135 131 137 155 167 154 138 138 137 121 112 110 107 100 93 96 100
151 151 151 153 153 150 146 143 142 139 135 133 132 129 126 129 131 123 115 110 108 112 115 110 107 104 99 96 96 100 101 94 92 91 85 80 82 87 85 82 86 95 115 129 144 153 151 150 149 151 164 154 134 138 142 127 113 111 107 98 92 95 100
156 156 155 154 153 153 153 150 147 143 138 135 135 133 131 133 134 130 124 115 107 108 115 114 109 108 106 101 98 101 102 97 93 88 83 80 79 79 77 76 77 81 105 126 140 151 152 153 150 148 159 154 136 143 149 140 129 122 113 102 90 88 95
157 157 156 156 156 159 159 153 148 146 142 139 137 136 134 134 134 133 131 126 112 105 115 118 113 110 108 104 100 99 101 102 98 90 83 84 83 80 78 77 77 79 93 116 134 144 148 149 151 158 160 145 141 149 153 145 138 130 121 113 96 85 88
157 156 157 160 161 162 159 154 152 149 145 144 142 141 140 135 133 132 132 131 121 110 111 112 108 106 106 104 102 98 99 102 100 92 86 88 88 85 82 80 82 81 85 99 118 140 152 153 155 162 157 139 136 145 142 135 131 128 128 124 101 82 89
157 157 158 162 163 161 159 157 156 151 148 149 146 143 143 140 135 131 127 128 126 119 116 114 112 113 112 110 109 105 102 104 102 94 90 92 92 90 87 84 84 85 85 90 95 113 139 146 152 168 173 165 143 123 122 118 120 129 132 127 110 93 95
160 159 160 164 164 161 162 161 157 153 152 151 147 143 141 137 133 132 131 130 130 126 122 119 119 121 119 114 112 110 108 110 109 102 97 97 96 92 88 85 83 84 86 84 81 88 99 104 110 129 168 173 156 134 123 119 118 141 143 133 130 141 125
161 162 163 164 161 161 164 163 158 157 156 153 148 143 139 138 137 137 136 132 129 126 123 122 121 120 118 115 114 115 115 115 113 109 105 105 104 100 94 90 87 84 82 78 75 77 79 84 92 82 88 149 156 143 132 130 112 134 148 145 139 152 158
164 163 163 161 161 163 165 164 162 161 158 156 150 144 141 143 143 139 135 132 130 128 127 127 127 125 122 122 121 118 116 116 113 108 106 106 108 110 106 98 93 88 88 87 78 71 71 76 85 75 72 122 151 144 131 124 102 126 148 156 151 147 155
166 163 160 158 158 162 164 163 164 161 158 157 151 146 145 145 142 139 136 136 135 132 129 127 127 127 125 124 124 120 116 115 114 111 108 105 103 111 112 105 99 96 97 97 83 68 66 70 82 84 84 111 136 138 130 119 106 115 138 152 158 156 161
155 155 156 155 151 153 159 163 163 160 158 159 153 148 148 145 143 143 140 140 138 134 134 131 128 130 128 125 124 127 128 122 118 118 116 110 106 111 115 108 104 101 97 95 84 69 69 83 94 92 92 113 131 137 135 125 120 126 134 144 153 160 171
144 146 147 151 151 150 153 159 162 161 159 159 156 151 150 149 149 148 144 144 141 137 138 135 132 134 131 127 117 111 122 125 119 116 118 118 110 106 110 107 103 101 97 91 82 74 78 93 102 99 99 116 129 132 138 137 136 143 151 155 156 162 174
135 144 146 152 162 167 164 162 163 164 162 161 159 155 153 152 152 152 149 146 142 137 137 133 132 136 131 127 118 100 109 124 124 114 119 128 123 111 106 101 96 102 105 92 80 84 86 85 95 103 104 112 115 114 127 142 147 155 161 162 166 174 182
130 141 154 160 167 181 180 171 166 166 166 164 161 157 155 156 157 157 155 154 153 150 148 141 131 131 132 134 140 134 127 132 131 117 117 130 135 131 125 114 104 109 116 100 85 96 95 82 89 102 103 103 100 96 104 123 145 164 168 167 173 180 183
146 149 166 170 179 195 187 176 173 174 172 168 164 161 161 161 161 160 160 165 167 162 160 153 136 131 143 152 157 159 154 149 148 139 132 143 151 149 140 132 128 130 133 114 95 101 102 90 94 101 100 98 96 95 99 99 115 152 161 164 173 177 180
169 167 172 172 184 196 188 179 179 178 175 170 167 168 168 170 171 169 169 175 176 170 165 159 149 148 164 174 175 177 176 175 183 193 197 191 189 182 162 151 149 147 147 137 122 118 110 101 104 106 105 104 102 101 97 88 95 127 139 144 159 168 170
184 180 178 172 177 188 188 185 180 175 176 173 172 177 178 177 180 182 182 184 182 179 176 176 175 173 175 182 190 193 192 198 209 217 227 232 226 218 199 185 179 163 160 159 150 152 144 122 116 111 113 119 115 104 89 83 94 107 111 120 142 162 170
184 181 180 170 163 171 186 191 185 179 181 181 180 182 179 174 177 183 191 194 186 173 175 187 195 193 186 190 202 208 210 221 229 228 235 242 234 225 213 203 198 183 179 183 171 170 170 150 135 120 118 125 127 115 91 83 94 91 79 90 110 196 221
180 180 182 172 158 148 165 184 188 189 190 187 182 179 176 171 173 180 188 193 190 180 178 191 203 206 206 208 212 215 214 225 239 239 241 242 231 220 211 200 194 184 178 177 171 171 171 164 160 149 132 125 116 114 104 92 102 86 73 77 60 7 290
178 184 187 178 168 163 165 177 184 187 185 180 176 177 177 175 176 183 186 186 192 196 191 192 203 212 216 216 213 215 225 238 243 237 235 230 213 202 198 186 171 161 161 165 166 164 166 169 172 174 175 196 251 244 201 156 159 160 94 71 54 37 13
171 182 189 186 180 180 182 181 180 182 181 178 177 179 183 182 181 187 192 191 197 202 198 192 199 209 215 214 210 212 220 222 214 206 206 201 187 181 178 162 144 136 143 156 162 164 166 172 179 197 226 245 246 238 223 202 195 200 173 107 71 49 45
161 169 185 192 189 190 196 200 193 187 186 187 187 187 189 189 188 192 198 202 206 209 211 211 208 211 214 213 215 217 201 182 171 173 177 176 173 172 167 154 137 125 129 136 136 138 138 129 124 137 197 226 227 226 222 213 201 195 184 143 96 49 50
159 160 177 188 186 189 201 211 215 205 192 192 193 193 196 197 196 196 197 200 204 207 213 213 205 208 210 198 188 186 175 160 154 156 159 162 168 172 166 155 145 139 142 145 143 139 130 114 107 105 113 161 189 200 224 231 227 230 240 242 248 320 13
161 161 169 178 182 187 195 204 211 207 194 193 192 189 192 196 197 197 197 202 210 214 215 206 195 197 193 177 168 166 163 159 160 161 161 166 176 182 172 161 156 154 153 155 155 149 133 115 108 94 81 93 95 81 65 38 320 273 270 271 272 268 244
169 176 178 180 184 190 196 201 207 204 197 196 196 194 197 202 208 212 213 215 218 215 205 189 179 177 172 163 157 155 152 154 155 150 147 151 159 166 168 168 167 159 147 143 144 143 133 124 130 122 85 93 93 74 59 58 63 58 29 340 299 200 177
173 177 180 182 186 196 202 205 208 205 202 204 203 202 205 207 210 212 212 211 205 193 178 168 165 166 167 166 165 160 155 156 155 148 143 143 142 142 153 167 168 157 149 146 139 139 139 130 137 161 184 187 143 92 70 71 80 88 90 94 112 143 189
176 177 178 179 183 188 191 194 194 190 190 196 198 198 198 196 198 201 197 187 178 171 165 163 166 170 174 179 178 172 163 160 161 158 151 148 143 136 143 159 163 153 150 151 142 146 162 159 150 148 173 197 199 166 115 94 88 99 111 133 176 284 320
118 154 173 184 189 186 181 184 189 188 186 188 189 190 187 182 184 190 186 175 170 168 167 170 173 178 182 182 181 178 168 159 160 161 160 158 155 149 146 151 157 154 146 142 139 145 173 197 216 241 173 185 190 167 112 101 95 99 100 82 10 345 342
42 46 55 81 179 183 179 180 182 183 185 185 183 183 183 181 182 185 180 175 176 177 179 180 181 181 182 183 185 186 181 171 166 165 167 165 157 158 161 159 165 173 162 146 156 159 151 198 201 137 130 170 176 167 128 110 105 104 67 2 347 344 348
23 26 27 22 24 54 162 188 187 186 188 191 190 188 187 188 190 191 190 189 188 190 191 189 186 185 186 191 196 194 183 178 175 173 174 173 164 162 168 172 177 186 186 178 167 157 157 172 155 111 110 143 158 162 159 151 164 251 296 320 335 349 3
7 9 7 2 4 11 16 29 187 194 200 201 198 198 200 203 202 199 196 196 194 193 194 191 188 190 194 200 204 202 193 188 187 186 183 180 176 173 173 177 181 182 180 174 164 160 168 173 164 137 117 126 141 159 182 214 249 271 286 305 336 357 356
352 353 352 350 349 347 349 352 343 293 253 237 225 211 204 212 215 208 200 199 198 194 193 195 194 194 201 208 210 204 197 191 192 194 189 183 183 184 181 180 180 174 170 167 165 177 194 190 188 191 165 59 47 29 286 269 269 279 290 304 336 337 335
339 338 336 338 339 336 333 332 329 317 298 277 265 260 244 223 220 209 199 196 197 194 192 196 199 199 204 213 217 211 201 184 183 194 195 190 188 188 184 179 175 170 170 173 177 187 197 198 204 220 265 327 340 343 339 336 66 50 337 334 334 333 341
334 333 332 331 331 328 325 322 318 310 302 289 270 262 260 251 221 202 197 196 197 197 197 199 205 208 209 214 220 219 213 199 178 186 195 192 190 190 186 179 172 170 173 177 180 185 191 195 207 225 256 302 316 320 147 136 121 101 85 37 8 9 40